| time (UTC) | temp F | wind direction | speed knots | gust knots | rain 1hr in | rain 24hr in | rain mn in | humidity % | barometer mb |
| 20260901114505 | 68 | 338 | 0.0 | 0.0 | 0.01 | 0.01 | 0.01 | 71 | 1011.2 |
| 20260901113006 | 67 | 338 | 0.0 | 0.0 | 0.01 | 0.01 | 0.01 | 71 | 1011.2 |
| 20260901111506 | 67 | 338 | 0.0 | 0.0 | 0.00 | 0.00 | 0.00 | 71 | 1011.0 |
| 20260901110010 | 67 | 338 | 0.0 | 0.0 | 0.00 | 0.00 | 0.00 | 71 | 1010.8 |
| 20260901104506 | 67 | 338 | 0.0 | 0.0 | 0.00 | 0.00 | 0.00 | 71 | 1010.8 |
| 20260901103005 | 67 | 338 | 0.0 | 0.0 | 0.00 | 0.00 | 0.00 | 71 | 1010.8 |
| 20260901101505 | 67 | 338 | 0.0 | 0.0 | 0.00 | 0.00 | 0.00 | 71 | 1011.0 |
| 20260901100004 | 67 | 338 | 0.0 | 0.0 | 0.00 | 0.00 | 0.00 | 72 | 1011.1 |
| 20260901094504 | 67 | 338 | 0.0 | 0.0 | 0.00 | 0.00 | 0.00 | 72 | 1011.2 |
| 20260901093004 | 67 | 338 | 0.0 | 0.0 | 0.00 | 0.00 | 0.00 | 72 | 1011.0 |
| 20260901091504 | 67 | 338 | 0.0 | 0.0 | 0.00 | 0.00 | 0.00 | 72 | 1011.1 |
| 20260901090008 | 67 | 338 | 0.0 | 0.0 | 0.00 | 0.00 | 0.00 | 72 | 1010.9 |
| 20260901084504 | 67 | 338 | 0.0 | 1.7 | 0.00 | 0.00 | 0.00 | 72 | 1010.6 |
| 20260901083004 | 67 | 338 | 0.0 | 0.0 | 0.00 | 0.00 | 0.00 | 72 | 1010.5 |
| 20260901081503 | 67 | 338 | 0.0 | 3.5 | 0.00 | 0.00 | 0.00 | 72 | 1010.4 |
| 20260901080003 | 67 | 338 | 0.0 | 0.0 | 0.00 | 0.00 | 0.00 | 72 | 1010.5 |
| 20260901074506 | 67 | 338 | 0.9 | 3.5 | 0.00 | 0.00 | 0.00 | 72 | 1010.3 |
| 20260901073002 | 67 | 338 | 0.0 | 0.0 | 0.00 | 0.00 | 0.00 | 72 | 1010.3 |
| 20260901071505 | 67 | 338 | 0.0 | 0.0 | 0.00 | 0.00 | 0.00 | 72 | 1010.4 |
| 20260901070003 | 67 | 338 | 0.9 | 2.6 | 0.00 | 0.00 | 0.00 | 72 | 1010.3 |
| 20260901064601 | 67 | 338 | 0.9 | 2.6 | 0.00 | 0.00 | 0.00 | 72 | 1010.3 |
| 20260901063102 | 67 | 338 | 0.0 | 2.6 | 0.00 | 0.00 | 0.00 | 72 | 1010.3 |
| 20260901061602 | 67 | 338 | 0.0 | 0.0 | 0.00 | 0.00 | 0.00 | 72 | 1010.2 |
| 20260901060001 | 67 | 338 | 0.0 | 2.6 | 0.00 | 0.00 | 0.00 | 72 | 1010.3 |
| 20260901054503 | 67 | 338 | 0.9 | 4.3 | 0.00 | 0.00 | 0.00 | 72 | 1010.1 |
| 20260901053001 | 67 | 280 | 0.9 | 3.5 | 0.00 | 0.00 | 0.00 | 72 | 1010.2 |
| 20260901051610 | 67 | 280 | 0.0 | 0.0 | 0.00 | 0.00 | 0.00 | 72 | 1010.2 |
| 20260901050100 | 67 | 280 | 0.0 | 0.0 | 0.00 | 0.00 | 0.00 | 72 | 1010.1 |
| 20260901044609 | 67 | 280 | 0.0 | 0.0 | 0.00 | 0.00 | 0.00 | 73 | 1010.1 |
| 20260901043100 | 67 | 280 | 0.0 | 0.0 | 0.00 | 0.00 | 0.00 | 73 | 1010.2 |
| 20260901041603 | 67 | 280 | 0.0 | 0.0 | 0.00 | 0.00 | 0.00 | 73 | 1010.3 |
| 20260901040111 | 67 | 280 | 0.0 | 0.0 | 0.00 | 0.00 | 0.00 | 73 | 1010.3 |
| 20260901034610 | 67 | 280 | 0.0 | 0.0 | 0.00 | 0.00 | 0.00 | 73 | 1010.2 |
| 20260901033100 | 67 | 280 | 0.0 | 0.0 | 0.00 | 0.00 | 0.00 | 73 | 1010.3 |
| 20260901031558 | 67 | 280 | 0.0 | 0.0 | 0.00 | 0.00 | 0.00 | 73 | 1010.2 |
| 20260901030058 | 67 | 280 | 0.0 | 0.0 | 0.00 | 0.00 | 0.00 | 73 | 1010.3 |
| 20260901024558 | 67 | 280 | 0.0 | 0.0 | 0.00 | 0.00 | 0.00 | 73 | 1010.6 |
| 20260901023106 | 67 | 280 | 0.0 | 2.6 | 0.00 | 0.00 | 0.00 | 73 | 1010.9 |
| 20260901021557 | 67 | 280 | 0.0 | 2.6 | 0.00 | 0.00 | 0.00 | 73 | 1010.8 |
| 20260901020057 | 67 | 280 | 0.0 | 3.5 | 0.00 | 0.00 | 0.00 | 73 | 1010.7 |
| 20260901014559 | 67 | 279 | 0.0 | 0.0 | 0.00 | 0.00 | 0.00 | 73 | 1010.4 |
| 20260901013056 | 67 | 279 | 0.9 | 4.3 | 0.00 | 0.00 | 0.00 | 74 | 1010.4 |
| 20260901011555 | 67 | 281 | 0.0 | 0.0 | 0.00 | 0.00 | 0.00 | 74 | 1010.5 |
| 20260901010055 | 67 | 281 | 0.0 | 0.0 | 0.00 | 0.00 | 0.00 | 74 | 1010.6 |
| 20260901004559 | 68 | 281 | 0.0 | 3.5 | 0.00 | 0.00 | 0.00 | 74 | 1010.4 |
| 20260901003055 | 68 | 289 | 0.0 | 3.5 | 0.00 | 0.00 | 0.00 | 74 | 1010.4 |
| 20260901001555 | 68 | 289 | 0.0 | 2.6 | 0.00 | 0.00 | 0.00 | 74 | 1010.3 |
| 20260901000053 | 68 | 290 | 0.0 | 4.3 | 0.00 | 0.00 | 0.00 | 74 | 1010.3 |
| 20260831234553 | 68 | 290 | 0.0 | 2.6 | 0.00 | 0.00 | 0.00 | 74 | 1010.0 |
| 20260831233055 | 68 | 294 | 0.0 | 3.5 | 0.00 | 0.00 | 0.00 | 74 | 1009.9 |
| 20260831231555 | 68 | 287 | 1.7 | 6.1 | 0.00 | 0.00 | 0.00 | 74 | 1010.1 |
| 20260831230101 | 68 | 299 | 2.6 | 6.1 | 0.00 | 0.00 | 0.00 | 74 | 1010.1 |
| 20260831224552 | 68 | 274 | 1.7 | 6.1 | 0.00 | 0.00 | 0.00 | 74 | 1010.0 |
| 20260831223053 | 68 | 295 | 1.7 | 6.1 | 0.00 | 0.00 | 0.00 | 74 | 1010.3 |
| 20260831221600 | 68 | 291 | 0.9 | 5.2 | 0.00 | 0.00 | 0.00 | 74 | 1010.2 |
| 20260831214553 | 68 | 351 | 0.0 | 3.5 | 0.00 | 0.00 | 0.00 | 75 | 1010.3 |
| 20260831213058 | 68 | 251 | 0.0 | 6.1 | 0.00 | 0.00 | 0.00 | 75 | 1010.2 |
| 20260831211601 | 68 | 243 | 0.9 | 4.3 | 0.00 | 0.00 | 0.00 | 74 | 1010.0 |
| 20260831210048 | 68 | 326 | 0.0 | 1.7 | 0.00 | 0.00 | 0.00 | 73 | 1010.2 |
| 20260831204553 | 68 | 285 | 0.0 | 5.2 | 0.00 | 0.00 | 0.00 | 73 | 1010.1 |
| 20260831203046 | 68 | 243 | 0.9 | 5.2 | 0.00 | 0.00 | 0.00 | 73 | 1010.2 |
| 20260831201545 | 68 | 356 | 2.6 | 7.0 | 0.00 | 0.00 | 0.00 | 73 | 1010.2 |
| 20260831200052 | 67 | 309 | 2.6 | 7.8 | 0.00 | 0.00 | 0.00 | 73 | 1010.6 |
| 20260831194544 | 67 | 346 | 2.6 | 6.1 | 0.00 | 0.00 | 0.00 | 73 | 1010.7 |
| 20260831193044 | 67 | 285 | 2.6 | 7.8 | 0.00 | 0.00 | 0.00 | 73 | 1011.0 |
| 20260831191542 | 67 | 267 | 2.6 | 6.1 | 0.00 | 0.00 | 0.00 | 73 | 1010.8 |
| 20260831190100 | 67 | 351 | 2.6 | 7.8 | 0.00 | 0.00 | 0.00 | 73 | 1010.7 |
| 20260831184540 | 67 | 339 | 2.6 | 7.0 | 0.00 | 0.00 | 0.00 | 73 | 1010.9 |
| 20260831183040 | 67 | 329 | 1.7 | 5.2 | 0.00 | 0.00 | 0.00 | 72 | 1010.9 |
| 20260831181537 | 67 | 288 | 0.9 | 4.3 | 0.00 | 0.00 | 0.00 | 72 | 1011.3 |
| 20260831180044 | 67 | 305 | 0.9 | 6.1 | 0.00 | 0.00 | 0.00 | 72 | 1011.4 |
| 20260831174538 | 67 | 280 | 0.9 | 7.0 | 0.00 | 0.00 | 0.00 | 72 | 1011.7 |
| 20260831173033 | 67 | 319 | 0.0 | 7.0 | 0.00 | 0.00 | 0.00 | 72 | 1011.4 |
| 20260831171532 | 67 | 301 | 2.6 | 7.0 | 0.00 | 0.00 | 0.00 | 72 | 1011.5 |
| 20260831170032 | 67 | 294 | 1.7 | 5.2 | 0.00 | 0.00 | 0.00 | 72 | 1011.4 |
| 20260831164543 | 66 | 294 | 2.6 | 5.2 | 0.00 | 0.00 | 0.00 | 73 | 1011.7 |
| 20260831163029 | 66 | 317 | 2.6 | 6.1 | 0.00 | 0.00 | 0.00 | 73 | 1011.7 |
| 20260831161528 | 66 | 326 | 2.6 | 7.0 | 0.00 | 0.00 | 0.00 | 73 | 1011.8 |
| 20260831160029 | 66 | 323 | 2.6 | 7.8 | 0.00 | 0.00 | 0.00 | 73 | 1011.9 |
| 20260831154533 | 66 | 309 | 2.6 | 6.1 | 0.00 | 0.00 | 0.00 | 73 | 1012.1 |
| 20260831153028 | 66 | 303 | 0.9 | 4.3 | 0.00 | 0.00 | 0.00 | 73 | 1011.9 |
| 20260831151525 | 66 | 307 | 0.9 | 4.3 | 0.00 | 0.00 | 0.00 | 73 | 1012.1 |
| 20260831150023 | 66 | 297 | 0.9 | 4.3 | 0.00 | 0.00 | 0.00 | 73 | 1012.3 |
| 20260831144522 | 66 | 274 | 0.9 | 6.1 | 0.00 | 0.00 | 0.00 | 73 | 1012.5 |
| 20260831143022 | 66 | 270 | 0.0 | 7.0 | 0.00 | 0.00 | 0.00 | 73 | 1012.4 |
| 20260831141518 | 66 | 307 | 0.0 | 2.6 | 0.00 | 0.00 | 0.00 | 73 | 1012.5 |
| 20260831140018 | 66 | 305 | 0.9 | 5.2 | 0.00 | 0.00 | 0.00 | 73 | 1012.6 |
| 20260831134516 | 66 | 303 | 1.7 | 6.1 | 0.00 | 0.00 | 0.00 | 73 | 1012.7 |
| 20260831133015 | 66 | 310 | 1.7 | 7.0 | 0.00 | 0.00 | 0.00 | 73 | 1012.9 |
| 20260831131512 | 66 | 323 | 4.3 | 7.8 | 0.00 | 0.00 | 0.00 | 73 | 1012.6 |
| 20260831130013 | 66 | 10 | 3.5 | 7.8 | 0.00 | 0.00 | 0.00 | 73 | 1012.5 |
| 20260831124511 | 66 | 308 | 2.6 | 7.0 | 0.00 | 0.00 | 0.00 | 74 | 1012.3 |
| 20260831123010 | 66 | 9 | 1.7 | 6.1 | 0.00 | 0.00 | 0.00 | 74 | 1012.3 |
| 20260831121510 | 66 | 287 | 3.5 | 6.1 | 0.00 | 0.00 | 0.00 | 74 | 1012.2 |
| 20260831120023 | 66 | 312 | 3.5 | 8.7 | 0.00 | 0.00 | 0.00 | 74 | 1011.8 |